Regional Weather Roundup
Issued by NWS

Home | Current Version | Previous Version | Text Only | Print | Product List | Glossary On
Versions: 1 2 3 4 5 6 7 8 9 10 11 12 13 14 15 16 17 18 19 20 21 22 23 24 25 26 27 28 29 30 31 32 33 34 35 36 37 38 39 40 41 42 43 44 45 46 47 48 49 50
431
ASUS44 KJAN 200903
RWRMS

MISSISSIPPI HOURLY WEATHER ROUNDUP
NATIONAL WEATHER SERVICE JACKSON MS
400 AM CDT SAT SEP 20 2014

NOTE: "FAIR: INDICATES FEW OR NO CLOUDS BELOW 12,000 FEET WITH NO
SIGNIFICANT WEATHER AND/OR OBSTRUCTIONS TO VISIBILITY.

MSZ001>002-007>008-010>013-018>021-025>028-034>036-201000-
NORTHWEST MISSISSIPPI

CITY           SKY/WX    TMP DP  RH WIND       PRES   REMARKS
CLARKSDALE       N/A     70  70 100 CALM      30.01S
CLEVELAND      FAIR      70  69  96 E5        29.98S
GREENWOOD      CLEAR     70  65  84 CALM      29.99R
GREENVILLE     CLEAR     69  66  90 CALM      29.97S
GRENADA        FAIR      66  64  94 CALM      30.01S
OLIVE BRANCH   CLEAR     66  66 100 SE5       30.02S
OXFORD         FAIR      68  64  88 SE5       30.04R
TUNICA         SUNNY     66  64  94 CALM      30.02R
$$

MSZ003>006-009-014>017-022>024-029>033-037>039-201000-
NORTHEAST MISSISSIPPI

CITY           SKY/WX    TMP DP  RH WIND       PRES   REMARKS
COLUMBUS AFB   CLEAR     69  65  88 E3        30.03S
CORINTH          N/A     64  63  94 CALM      30.04S FOG
GOLDN TRIANGLE CLEAR     72  63  73 E7        30.03R
STARKVILLE     FAIR      70  64  83 E5        30.02R
TUPELO         PTCLDY    72  65  78 SE5       30.03S
$$

MSZ040-058-201000-
CENTRAL MISSISSIPPI

CITY           SKY/WX    TMP DP  RH WIND       PRES   REMARKS
JACKSON INTL   CLEAR     68  67  96 CALM      29.98R
JACKSON HAWKNS CLEAR     71  68  90 CALM      29.98R FOG
MERIDIAN KEY   CLEAR     68  64  87 CALM      30.00S
MERIDIAN NAS   CLEAR     69  65  86 E6        30.01R
RAYMOND        FAIR      66  63  88 CALM      29.97S HAZE
VICKSBURG      CLEAR     66  64  93 CALM      29.97R
$$

MSZ059>079-201000-
SOUTH MISSISSIPPI

CITY           SKY/WX    TMP DP  RH WIND       PRES   REMARKS
BROOKHAVEN     FAIR      66  66 100 CALM      30.00R
COLUMBIA       FAIR      66  66 100 CALM      29.96S FOG
HATTIESBURG    CLEAR     68  66  93 CALM      29.98S FOG
MCCOMB         CLEAR     72  68  87 CALM      29.97S
NATCHEZ        CLEAR     70  66  88 CALM      29.97S
PINE BELT      CLEAR    N/A N/A N/A CALM      29.99S
$$

MSZ080>082-201000-
COASTAL MISSISSIPPI

CITY           SKY/WX    TMP DP  RH WIND       PRES   REMARKS
BILOXI         CLEAR     73  69  86 NE9       29.94S
PASCAGOULA     CLEAR     71  68  90 NE6       29.94F
GULFPORT       CLEAR     74  69  85 NE6       29.93S
$$



USA.gov is the U.S. government's official web portal to all federal, state and local government web resources and services.